Location: Ferques
(50.8300°N, 1.7599°E)
Time: 23:52:52
(UTC+00:00)

Meteor 2-15 - Pass Details

Date: 19 May 2025
Orbit: 935 x 956 km, 82.5° (Epoch: 18 June)

Event Time Altitude Azimuth Distance (km) Brightness Sun altitude
Rises 22:35:20 0° 349° (N) 3,630 9.2 -17.3°
Reaches altitude 10° 22:37:51 10° 351° (N) 2,677 8.1 -17.5°
Maximum altitude 22:43:59 79° 78° (ENE) 964 4.4 -17.7°
Enters shadow 22:47:15 29° 163° (SSE) 1,641 5.1 -17.9°
